Location: Elstree
(51.6403°N, 0.2969°W)
Time: 14:44:38
(UTC+00:00)

Okean 3 - Pass Details

Date: 03 March 2021
Orbit: 577 x 600 km, 82.5° (Epoch: 12 April)

Event Time Altitude Azimuth Distance (km) Brightness Sun altitude
Rises 20:11:46 0° 346° (NNW) 2,832 7.4 -23.2°
Reaches altitude 10° 20:14:00 10° 342° (NNW) 1,930 6.6 -23.5°
Maximum altitude 20:18:10 55° 265° (W) 716 4.1 -24.1°
Enters shadow 20:19:38 36° 206° (SSW) 955 4.5 -24.3°
